This is the latest recevied weather packets stored in our database for station/object JE7UPL-13. If no packets are shown the sender has not sent any weather packets the latest 10 day(s).
| Time | Temp. | Humidity | Pressure | Rain* | Wind** | Luminosity | Snow |
|---|---|---|---|---|---|---|---|
| 1787752807 | 22.22° C | 84% | 1004.7 hPa | 0 mm | - | - | - |
| 1787751906 | 22.22° C | 86% | 1004.5 hPa | 0 mm | - | - | - |
| 1787751006 | 22.22° C | 87% | 1004.8 hPa | 0 mm | - | - | - |
| 1787750106 | 22.22° C | 86% | 1004.7 hPa | 0 mm | - | - | - |
| 1787749207 | 22.22° C | 86% | 1004.9 hPa | 0 mm | - | - | - |
| 1787748306 | 22.22° C | 86% | 1005.2 hPa | 0 mm | - | - | - |
| 1787747406 | 22.22° C | 86% | 1005.6 hPa | 0 mm | - | - | - |
| 1787746506 | 22.22° C | 85% | 1005.9 hPa | 0 mm | - | - | - |
| 1787745607 | 22.22° C | 85% | 1005.9 hPa | 0 mm | - | - | - |
| 1787744705 | 22.22° C | 84% | 1006 hPa | 0 mm | - | - | - |
| 1787743807 | 23.33° C | 84% | 1005.8 hPa | 0 mm | - | - | - |
| 1787742906 | 23.33° C | 85% | 1006.1 hPa | 0 mm | - | - | - |
| 1787742007 | 23.33° C | 85% | 1006.2 hPa | 0 mm | - | - | - |
| 1787741109 | 23.33° C | 85% | 1006.1 hPa | 0 mm | - | - | - |
| 1787740208 | 23.33° C | 83% | 1005.7 hPa | 0 mm | - | - | - |
| 1787739308 | 23.33° C | 82% | 1005.7 hPa | 0 mm | - | - | - |
| 1787738406 | 23.89° C | 82% | 1006.1 hPa | 0 mm | - | - | - |
| 1787737506 | 23.89° C | 82% | 1006.2 hPa | 0 mm | - | - | - |
| 1787736606 | 23.89° C | 81% | 1005.8 hPa | 0 mm | - | - | - |
| 1787735706 | 24.44° C | 78% | 1006 hPa | 0 mm | - | - | - |
| 1787734807 | 25° C | 74% | 1005.8 hPa | 0 mm | - | - | - |
| 1787733906 | 25.56° C | 72% | 1005.8 hPa | 0 mm | - | - | - |
| 1787733007 | 25.56° C | 71% | 1005.7 hPa | 0 mm | - | - | - |
| 1787732106 | 25.56° C | 70% | 1005.5 hPa | 0 mm | - | - | - |
| 1787731206 | 26.11° C | 70% | 1005.5 hPa | 0 mm | - | - | - |
* Rain latest hour (hover to see other rain measurements)
** Current wind speed in m/s (hover to see current wind gust speed)